[[{"header":{"parameterUnit":"m.s-1","parameterCategory":1,"la1":30.2991,"la2":30.254,"lo1":-89.0895,"lo2":-89.0444,"dy":0.0017,"dx":0.0017,"nx":28,"ny":28,"refTime":"2025-01-30T03:00:00:Z","depth":0,"parameterNumber":2,"parameterNumberName":"U-component_of_WINDS"},"data":[0,0,0,0,0,0,0,0,0,0,0,0,0,0,0,0,0,0,0,0,0,0,0,0,0,0,0,0,0,0,0,0,0,0,0,0,0,0,0,0,0,0,0,0,0,0,0,0,0,0,0,0,0,0,0,0,0,0,-1.8204,-1.8205,0,-1.8259,-1.826,-1.8261,-1.8273,-1.8273,-1.8272,-1.8272,-1.833,-1.8332,-1.8333,0,0,0,0,0,0,0,0,0,0,0,0,0,-1.811,-1.8112,-1.8204,-1.8205,-1.8205,-1.8259,-1.826,-1.8261,-1.8273,-1.8273,-1.8272,-1.8272,-1.8329,-1.8331,-1.8334,0,0,0,0,0,0,0,0,0,0,0,0,0,-1.8157,-1.8113,-1.8204,-1.8218,-1.822,-1.8259,-1.826,-1.8261,-1.8273,-1.8273,-1.8272,-1.8272,-1.8328,-1.8331,-1.8334,-1.8363,0,0,-1.8343,-1.8344,0,0,0,0,0,0,0,0,-1.8154,-1.816,-1.8215,-1.8217,-1.8219,-1.8259,-1.8248,-1.8295,-1.8274,-1.8253,-1.8272,-1.8271,-1.8307,-1.8311,-1.8323,-1.8366,-1.8368,-1.8343,-1.8345,-1.8346,-1.8347,0,0,0,0,0,0,0,-1.8151,-1.8158,-1.8226,-1.8216,-1.8219,-1.8222,-1.8228,-1.8257,-1.8283,-1.8255,-1.8256,-1.8262,-1.8308,-1.832,-1.8324,-1.8369,-1.8343,-1.8345,-1.8347,-1.8348,-1.8439,-1.844,0,0,0,0,0,0,-1.8145,-1.8155,-1.8224,-1.8228,-1.8185,-1.8224,-1.8231,-1.8247,-1.8282,-1.8287,-1.8263,-1.8263,-1.8316,-1.8321,-1.8326,-1.8363,-1.8346,-1.8348,-1.835,-1.8438,-1.8439,-1.844,0,0,0,0,0,0,-1.8143,-1.8151,-1.8222,-1.8192,-1.8201,-1.8227,-1.8244,-1.8248,-1.8261,-1.8288,-1.8293,-1.8271,-1.8315,-1.8322,-1.8354,-1.8365,-1.835,-1.8352,-1.8437,-1.8439,-1.8439,-1.8435,0,0,0,0,0,0,-1.814,-1.815,-1.8161,-1.8192,-1.8203,-1.8248,-1.8245,-1.825,-1.8265,-1.8266,-1.8297,-1.8301,-1.8315,-1.835,-1.8357,-1.8368,-1.8355,-1.8437,-1.8438,-1.8439,-1.8435,-1.8436,-1.8437,0,0,0,0,0,-1.8137,-1.8158,-1.8162,-1.817,-1.8217,-1.8249,-1.8255,-1.827,-1.8266,-1.8278,-1.8295,-1.83,-1.8363,-1.8353,-1.8361,-1.8374,-1.8436,-1.8438,-1.8439,-1.8434,-1.8436,-1.8437,0,0,0,0,0,0,-1.8129,-1.8162,-1.8167,-1.8199,-1.8221,-1.8251,-1.8265,-1.8272,-1.8295,-1.8295,-1.8313,-1.832,-1.835,-1.8365,-1.8354,-1.8404,-1.8399,-1.8403,-1.8393,-1.8395,-1.8396,-1.8391,-1.8357,0,0,0,0,0,-1.813,-1.8153,-1.8182,-1.8207,-1.8218,-1.824,-1.8254,-1.8264,-1.8288,-1.8297,-1.8317,-1.834,-1.8365,-1.8381,-1.8405,-1.8437,-1.8444,-1.845,-1.8452,-1.8453,-1.8455,-1.8473,-1.8476,-1.8445,-1.8445,-1.8445,0,0,-1.8134,-1.8156,-1.8169,-1.8206,-1.8224,-1.8247,-1.8247,-1.8272,-1.8289,-1.8301,-1.8331,-1.8347,-1.8374,-1.8406,-1.8421,-1.8419,-1.8465,-1.8455,-1.8455,-1.8457,-1.8475,-1.8478,-1.848,-1.8446,-1.8446,-1.8446,0,0,-1.8153,-1.8172,-1.8195,-1.8213,-1.824,-1.8255,-1.8261,-1.829,-1.8301,-1.8332,-1.8341,-1.8362,-1.8404,-1.8423,-1.8438,-1.8465,-1.847,-1.8473,-1.848,-1.8497,-1.8499,-1.8501,-1.851,-1.8513,-1.8475,-1.8475,-1.8475,0,-1.8155,-1.819,-1.8206,-1.823,-1.8246,-1.8257,-1.8281,-1.8298,-1.8332,-1.8343,-1.8341,-1.8394,-1.8413,-1.8449,-1.8456,-1.8468,-1.8475,-1.8468,-1.8498,-1.85,-1.8502,-1.8511,-1.8514,-1.8475,-1.8475,-1.8475,-1.8475,0,-1.819,-1.8214,-1.8229,-1.8261,-1.8279,-1.8303,-1.8323,-1.8339,-1.8348,-1.8363,-1.8394,-1.8418,-1.8447,-1.8457,-1.8466,-1.8494,-1.8492,-1.8494,-1.8489,-1.8505,-1.8513,-1.8517,-1.8475,-1.8475,-1.8475,-1.8475,0,0,-1.8204,-1.8245,-1.825,-1.8265,-1.8297,-1.8316,-1.834,-1.8368,-1.8382,-1.8405,-1.8426,-1.8462,-1.8463,-1.8481,-1.8492,-1.8507,-1.8526,-1.8507,-1.8508,-1.8509,-1.8559,-1.8557,-1.8561,-1.8531,-1.8531,-1.8532,-1.8556,0,-1.8226,-1.8269,-1.8285,-1.8321,-1.8343,-1.8355,-1.8376,-1.8398,-1.8413,-1.8434,-1.8451,-1.8476,-1.8476,-1.8487,-1.8502,-1.8521,-1.8536,-1.8519,-1.855,-1.8551,-1.8542,-1.8565,-1.8563,-1.8585,-1.856,-1.8561,-1.8561,0,-1.8258,-1.8281,-1.8319,-1.8347,-1.8357,-1.8376,-1.8403,-1.8424,-1.8449,-1.8459,-1.8478,-1.8488,-1.8515,-1.851,-1.8546,-1.8534,-1.8548,-1.8559,-1.856,-1.8563,-1.8556,-1.8568,-1.8593,-1.8595,-1.8567,-1.8566,-1.8566,0,-1.8263,-1.8304,-1.8332,-1.8344,-1.8379,-1.8391,-1.8406,-1.8431,-1.8447,-1.8471,-1.8482,-1.8509,-1.8523,-1.8544,-1.8562,-1.8557,-1.8597,-1.8593,-1.8606,-1.8605,-1.8613,-1.8612,-1.8639,-1.8623,-1.8623,-1.8623,-1.8623,0,-1.8286,-1.8308,-1.8335,-1.8352,-1.8378,-1.8396,-1.8421,-1.8437,-1.8458,-1.8479,-1.8491,-1.8511,-1.8533,-1.8555,-1.8569,-1.8597,-1.8604,-1.8613,-1.8616,-1.8611,-1.861,-1.862,-1.8618,-1.8624,-1.8624,-1.8624,-1.8623,0,-1.8296,-1.8315,-1.8346,-1.8376,-1.8384,-1.8401,-1.8427,-1.8444,-1.846,-1.8486,-1.8493,-1.8518,-1.8545,-1.8564,-1.8599,-1.8609,-1.8639,-1.8642,-1.863,-1.8631,-1.8642,-1.864,-1.8676,-1.8681,-1.8662,-1.8663,-1.8663,0,-1.8309,-1.8326,-1.8358,-1.8372,-1.8387,-1.841,-1.8426,-1.8445,-1.8462,-1.8492,-1.8505,-1.8533,-1.8556,-1.8598,-1.862,-1.8647,-1.8651,-1.8661,-1.8655,-1.8649,-1.865,-1.8648,-1.865,-1.8662,-1.8662,-1.8662,-1.8662,0,-1.8329,-1.8337,-1.836,-1.8386,-1.8405,-1.8427,-1.8448,-1.846,-1.8483,-1.8501,-1.8528,-1.8546,-1.8581,-1.8608,-1.8637,-1.8653,-1.8662,-1.8664,-1.8668,-1.8663,-1.8655,-1.8659,-1.8631,-1.8663,-1.8663,-1.8663,-1.8663,-1.8663,-1.8341,-1.8356,-1.8381,-1.8406,-1.8424,-1.8444,-1.8462,-1.8479,-1.8502,-1.8532,-1.8542,-1.857,-1.8596,-1.8635,-1.8652,-1.8674,-1.8674,-1.868,-1.8682,-1.8683,-1.8682,-1.8652,-1.868,-1.868,-1.868,-1.868,-1.868,0,-1.8361,-1.8377,-1.84,-1.843,-1.8449,-1.8455,-1.848,-1.8496,-1.852,-1.8543,-1.8565,-1.8597,-1.8623,-1.8647,-1.8675,-1.8688,-1.8693,-1.8695,-1.8693,-1.8697,-1.8681,-1.8674,-1.8691,-1.8691,-1.8691,-1.8691,-1.8691,-1.8691,-1.8374,-1.8401,-1.8412,-1.8449,-1.8465,-1.8492,-1.8506,-1.8524,-1.8542,-1.8577,-1.8599,-1.8614,-1.8637,-1.8666,-1.8691,-1.8698,-1.8707,-1.8708,-1.8715,-1.87,-1.8698,-1.8697,-1.8691,-1.871,-1.871,-1.8729,-1.8729,-1.873]},{"header":{"parameterUnit":"m.s-1","parameterCategory":1,"la1":30.2991,"la2":30.254,"lo1":-89.0895,"lo2":-89.0444,"dy":0.0017,"dx":0.0017,"nx":28,"ny":28,"refTime":"2025-01-30T03:00:00:Z","depth":0,"parameterNumber":3,"parameterNumberName":"V-component_of_WINDS"},"data":[0,0,0,0,0,0,0,0,0,0,0,0,0,0,0,0,0,0,0,0,0,0,0,0,0,0,0,0,0,0,0,0,0,0,0,0,0,0,0,0,0,0,0,0,0,0,0,0,0,0,0,0,0,0,0,0,0,0,6.0841,6.0841,0,6.0875,6.0875,6.0875,6.082,6.0818,6.0816,6.0814,6.0846,6.0848,6.0851,0,0,0,0,0,0,0,0,0,0,0,0,0,6.0725,6.0728,6.0841,6.0841,6.0841,6.0875,6.0875,6.0876,6.082,6.0818,6.0816,6.0813,6.0845,6.0848,6.0851,0,0,0,0,0,0,0,0,0,0,0,0,0,6.0769,6.0728,6.084,6.0818,6.0816,6.0875,6.0875,6.0876,6.0821,6.0818,6.0815,6.0812,6.0844,6.0847,6.0851,6.0932,0,0,6.0863,6.0865,0,0,0,0,0,0,0,0,6.0766,6.0773,6.0821,6.082,6.0818,6.084,6.0846,6.0894,6.0821,6.0819,6.0814,6.0811,6.0846,6.0849,6.0862,6.0934,6.0935,6.0864,6.0866,6.0868,6.0869,0,0,0,0,0,0,0,6.0763,6.0771,6.0854,6.0822,6.082,6.0805,6.0808,6.0855,6.0848,6.0819,6.0815,6.082,6.0844,6.0858,6.0862,6.0935,6.0863,6.0867,6.0869,6.0871,6.1078,6.1081,0,0,0,0,0,0,6.0764,6.0769,6.0853,6.0855,6.0785,6.081,6.0813,6.0836,6.0847,6.0846,6.0822,6.0817,6.0853,6.0858,6.0863,6.0961,6.0868,6.0871,6.0873,6.1075,6.1079,6.1082,0,0,0,0,0,0,6.0761,6.0772,6.0851,6.0811,6.082,6.0815,6.0841,6.0838,6.0852,6.085,6.0848,6.0838,6.0851,6.0858,6.0916,6.0961,6.0873,6.0876,6.1071,6.1076,6.108,6.1156,0,0,0,0,0,0,6.0758,6.0771,6.0802,6.0812,6.0823,6.0905,6.0843,6.0841,6.0859,6.0853,6.0864,6.0863,6.0849,6.0911,6.092,6.0965,6.088,6.1067,6.1073,6.1079,6.115,6.1163,6.1175,0,0,0,0,0,6.0754,6.0821,6.0804,6.0815,6.0862,6.0908,6.0914,6.0897,6.0863,6.0894,6.0893,6.0863,6.0954,6.0917,6.0927,6.0974,6.1064,6.1072,6.1079,6.1144,6.1161,6.1174,0,0,0,0,0,0,6.0814,6.0822,6.0803,6.0875,6.0892,6.0898,6.0937,6.0915,6.094,6.0933,6.091,6.0913,6.0977,6.0981,6.0939,6.1054,6.1004,6.1013,6.105,6.1066,6.1078,6.1076,6.0883,0,0,0,0,0,6.0836,6.0874,6.0878,6.0941,6.095,6.0943,6.0962,6.0948,6.0964,6.097,6.0973,6.0989,6.1021,6.1043,6.1072,6.1149,6.1152,6.1187,6.1199,6.1209,6.1218,6.1262,6.1278,6.1106,6.1106,6.1105,0,0,6.0881,6.089,6.0915,6.0953,6.0964,6.1004,6.0949,6.0992,6.1022,6.0976,6.1033,6.1036,6.1052,6.1121,6.1151,6.1126,6.1266,6.1218,6.1226,6.123,6.1271,6.1287,6.1302,6.111,6.111,6.1109,0,0,6.0984,6.0994,6.1049,6.1062,6.108,6.1075,6.1089,6.1099,6.11,6.1157,6.1125,6.1159,6.1214,6.1228,6.1242,6.1353,6.1327,6.1363,6.1428,6.1471,6.1485,6.1497,6.1539,6.1554,6.1372,6.1372,6.1372,0,6.1038,6.1098,6.108,6.1127,6.1146,6.1108,6.1164,6.1177,6.1203,6.1217,6.1188,6.126,6.1267,6.1341,6.1368,6.1379,6.1395,6.1363,6.1484,6.1496,6.1507,6.1547,6.1563,6.1376,6.1376,6.1375,6.1375,0,6.1164,6.1206,6.1248,6.1278,6.13,6.1351,6.1341,6.1366,6.1351,6.1349,6.1408,6.1416,6.1449,6.1464,6.1448,6.1536,6.152,6.1488,6.1437,6.1529,6.1566,6.1581,6.1383,6.1381,6.138,6.1379,0,0,6.1306,6.1327,6.1343,6.1357,6.1375,6.1407,6.1457,6.149,6.1513,6.1532,6.1575,6.1624,6.1595,6.1612,6.1597,6.1634,6.1725,6.1598,6.1598,6.1624,6.1825,6.1852,6.187,6.1707,6.171,6.1712,6.1825,0,6.1411,6.15,6.1486,6.1571,6.1611,6.1576,6.162,6.1636,6.1635,6.1668,6.1666,6.1703,6.1661,6.1671,6.1707,6.1707,6.1766,6.1698,6.1747,6.1749,6.1748,6.1889,6.1916,6.2023,6.1839,6.1842,6.1843,0,6.1546,6.1574,6.1664,6.1679,6.1695,6.1735,6.1766,6.1797,6.1815,6.1812,6.1831,6.181,6.186,6.1807,6.1876,6.1831,6.1849,6.1853,6.1856,6.1862,6.1804,6.1901,6.2056,6.2073,6.1866,6.1864,6.1862,0,6.1645,6.1704,6.1767,6.1779,6.1797,6.1827,6.1835,6.185,6.1872,6.1897,6.1912,6.1942,6.196,6.1984,6.1972,6.1934,6.2045,6.1989,6.2045,6.2045,6.2071,6.2071,6.2234,6.2079,6.2079,6.2078,6.2078,0,6.1766,6.1823,6.1812,6.1851,6.1914,6.1897,6.196,6.1964,6.1978,6.2017,6.1987,6.2024,6.2004,6.204,6.203,6.2091,6.2098,6.2098,6.2095,6.2102,6.2103,6.2116,6.211,6.2083,6.2082,6.2081,6.208,0,6.1888,6.1882,6.1949,6.1961,6.1966,6.2012,6.2023,6.2059,6.2056,6.2106,6.2117,6.2112,6.2153,6.2143,6.2186,6.218,6.2257,6.2243,6.2252,6.225,6.2307,6.2303,6.2488,6.2512,6.2338,6.234,6.2341,0,6.1967,6.2011,6.2029,6.2054,6.2066,6.2105,6.2128,6.2113,6.2138,6.2163,6.2196,6.2234,6.2264,6.233,6.2331,6.2364,6.2353,6.2415,6.2358,6.2365,6.2358,6.2357,6.2362,6.2428,6.243,6.2431,6.2433,0,6.2109,6.2105,6.214,6.2175,6.2203,6.2229,6.2252,6.2274,6.2261,6.229,6.2332,6.2356,6.2402,6.2441,6.2472,6.2479,6.2455,6.245,6.2466,6.2475,6.248,6.2481,6.2287,6.2447,6.2445,6.2444,6.2444,6.2443,6.2214,6.2252,6.2272,6.2313,6.2329,6.2352,6.2388,6.2391,6.2426,6.2464,6.2452,6.2501,6.2518,6.2558,6.257,6.2608,6.2584,6.2605,6.2611,6.2618,6.2626,6.2472,6.2613,6.2612,6.2612,6.2612,6.2611,0,6.2357,6.2369,6.2406,6.2441,6.2473,6.2448,6.2473,6.2501,6.2545,6.2564,6.2596,6.2645,6.2683,6.2687,6.2723,6.2753,6.2742,6.2763,6.2762,6.2765,6.2644,6.2629,6.2771,6.2771,6.2771,6.2771,6.2771,6.2771,6.2436,6.2501,6.2499,6.2573,6.2583,6.2633,6.2649,6.267,6.2686,6.2744,6.2776,6.2779,6.2792,6.2829,6.2863,6.2863,6.2879,6.2905,6.2901,6.2789,6.2773,6.2758,6.2744,6.2908,6.2908,6.302,6.3021,6.3021]}]]